User: anonymous   Login
Location: Unspecified
(0.0000°N, 0.0000°E)
Time: 20:38:16
(UTC+00:00)
Language:

OPS 3367B - Orbit

View from above orbital plane
View from above orbital plane
View from above satellite
View from above satellite

Ground track
Ground track

The orbit data is extracted from the following two-line orbital elements,

1 00735U 64002C   24057.63038494  .00000177  00000-0  90317-4 0  9991
2 00735  99.0281 306.1431 0015865 221.3727 138.6252 14.28120880126575
Epoch (UTC): 26 February 2024 15:07:45
Eccentricity: 0.0015865
inclination: 99.0281°
perigee height: 786 km
apogee height: 809 km
right ascension of ascending node: 306.1431°
argument of perigee: 221.3727°
revolutions per day: 14.28120880
mean anomaly at epoch: 138.6252°
orbit number at epoch: 12657

The dashed part of the orbit path shows where the satellite is in the earth's shadow,  

DLR